,,,PA_Meas_PMT16A,,PR_Meas_QMR101_102,,RH_Meas_QMH101,,SR_Meas_QMS101,,TA_Meas_QMH101,,GenWind,,GenWind,
date,time,status,PA,status,PR,status,RH,status,SR,status,TA,status,DirAvg,status,SpdAvg,
2008-05-08, 00:00:05,VALID,1009.43,VALID,0,VALID,95.8023,VALID,0.105969,VALID,23.4407,VALID,84,VALID,0.317187,
2008-05-08, 00:01:05,VALID,1009.43,VALID,0,VALID,95.7871,VALID,0.105969,VALID,23.4212,VALID,59,VALID,0.510156,
2008-05-08, 00:02:05,VALID,1009.43,VALID,0,VALID,95.7795,VALID,0.105969,VALID,23.3805,VALID,44,VALID,0.519531,
2008-05-08, 00:03:05,VALID,1009.44,VALID,0,VALID,95.7795,VALID,0,VALID,23.3823,VALID,35,VALID,0.478125,
2008-05-08, 00:04:05,VALID,1009.44,VALID,0,VALID,95.81,VALID,0,VALID,23.3628,VALID,35,VALID,0.453125,
2008-05-08, 00:05:05,VALID,1009.44,VALID,0,VALID,95.81,VALID,0,VALID,23.3433,VALID,25,VALID,0.508984,
2008-05-08, 00:06:05,VALID,1009.48,VALID,0,VALID,95.8328,VALID,0.105969,VALID,23.3238,VALID,25,VALID,0.410937,
2008-05-08, 00:07:05,VALID,1009.46,VALID,0,VALID,95.8633,VALID,0.105969,VALID,23.2831,VALID,25,VALID,0.480859,
2008-05-08, 00:08:05,VALID,1009.48,VALID,0,VALID,95.871,VALID,0.105969,VALID,23.3043,VALID,25,VALID,0.444531,
2008-05-08, 00:09:05,VALID,1009.47,VALID,0,VALID,95.8939,VALID,0.105969,VALID,23.2441,VALID,6,VALID,0.533594,
2008-05-08, 00:10:05,VALID,1009.48,VALID,0,VALID,95.932,VALID,0.105969,VALID,23.2654,VALID,1,VALID,0.617969,
2008-05-08, 00:11:05,VALID,1009.49,VALID,0,VALID,95.9244,VALID,0.105969,VALID,23.2831,VALID,357,VALID,0.573438,
2008-05-08, 00:12:05,VALID,1009.47,VALID,0,VALID,95.9167,VALID,0,VALID,23.2246,VALID,358,VALID,0.464844,
2008-05-08, 00:13:05,VALID,1009.47,VALID,0,VALID,95.9167,VALID,0,VALID,23.2264,VALID,358,VALID,0.396484,
2008-05-08, 00:14:05,VALID,1009.47,VALID,0,VALID,95.932,VALID,0.105969,VALID,23.2069,VALID,358,VALID,0.417578,
2008-05-08, 00:15:05,VALID,1009.46,VALID,0,VALID,95.9854,VALID,0.105969,VALID,23.2069,VALID,358,VALID,0.205469,
2008-05-08, 00:16:05,VALID,1009.44,VALID,0,VALID,95.993,VALID,0.105969,VALID,23.1662,VALID,358,VALID,0,
2008-05-08, 00:17:05,VALID,1009.47,VALID,0,VALID,95.9854,VALID,0,VALID,23.1467,VALID,358,VALID,0.223047,
2008-05-08, 00:18:05,VALID,1009.47,VALID,0,VALID,96.0082,VALID,0.105969,VALID,23.1485,VALID,358,VALID,0.203125,
2008-05-08, 00:19:05,VALID,1009.49,VALID,0,VALID,96.0235,VALID,0.105969,VALID,23.1485,VALID,358,VALID,0.159766,
2008-05-08, 00:20:05,VALID,1009.46,VALID,0,VALID,96.054,VALID,0.105969,VALID,23.1272,VALID,358,VALID,0,
2008-05-08, 00:21:05,VALID,1009.48,VALID,0,VALID,96.0845,VALID,0,VALID,23.129,VALID,358,VALID,0,
2008-05-08, 00:22:05,VALID,1009.44,VALID,0,VALID,96.0845,VALID,0.105969,VALID,23.129,VALID,358,VALID,0,
2008-05-08, 00:23:05,VALID,1009.44,VALID,0,VALID,96.0921,VALID,0.105969,VALID,23.129,VALID,358,VALID,0.288281,
2008-05-08, 00:24:05,VALID,1009.43,VALID,0,VALID,96.1074,VALID,0,VALID,23.1095,VALID,358,VALID,0.355859,
2008-05-08, 00:25:05,VALID,1009.42,VALID,0,VALID,96.0769,VALID,0,VALID,23.1095,VALID,358,VALID,0.285937,
2008-05-08, 00:26:05,VALID,1009.42,VALID,0,VALID,96.0997,VALID,0,VALID,23.09,VALID,358,VALID,0.339453,
2008-05-08, 00:27:05,VALID,1009.43,VALID,0,VALID,96.1074,VALID,0,VALID,23.09,VALID,359,VALID,0.303516,
2008-05-08, 00:28:05,VALID,1009.42,VALID,0,VALID,96.1074,VALID,0,VALID,23.0705,VALID,359,VALID,0.555078,
2008-05-08, 00:29:05,VALID,1009.43,VALID,0,VALID,96.1074,VALID,0,VALID,23.0511,VALID,359,VALID,0.514453,
2008-05-08, 00:30:05,VALID,1009.44,VALID,0,VALID,96.1226,VALID,0.105969,VALID,23.0493,VALID,360,VALID,0.436328,
2008-05-08, 00:31:05,VALID,1009.44,VALID,0,VALID,96.1531,VALID,0,VALID,23.09,VALID,1,VALID,0.459766,
2008-05-08, 00:32:05,VALID,1009.43,VALID,0,VALID,96.1531,VALID,0,VALID,23.0511,VALID,4,VALID,0.485547,
2008-05-08, 00:33:05,VALID,1009.42,VALID,0,VALID,96.1531,VALID,0.105969,VALID,23.0511,VALID,22,VALID,0.663281,
2008-05-08, 00:34:05,VALID,1009.39,VALID,0,VALID,96.1379,VALID,0,VALID,23.0103,VALID,25,VALID,0.606641,
2008-05-08, 00:35:05,VALID,1009.39,VALID,0,VALID,96.1608,VALID,0.105969,VALID,22.9909,VALID,25,VALID,0.578516,
2008-05-08, 00:36:05,VALID,1009.4,VALID,0,VALID,96.1531,VALID,0.105969,VALID,22.9714,VALID,23,VALID,0.708984,
2008-05-08, 00:37:05,VALID,1009.37,VALID,0,VALID,96.1684,VALID,0,VALID,22.9926,VALID,12,VALID,0.657812,
2008-05-08, 00:38:05,VALID,1009.32,VALID,0,VALID,96.1684,VALID,0.105969,VALID,22.9731,VALID,21,VALID,0.489453,
2008-05-08, 00:39:05,VALID,1009.32,VALID,0,VALID,96.1913,VALID,0.105969,VALID,22.9731,VALID,20,VALID,0.617578,
2008-05-08, 00:40:05,VALID,1009.3,VALID,0,VALID,96.1913,VALID,0,VALID,22.9324,VALID,25,VALID,0.459766,
2008-05-08, 00:41:05,VALID,1009.28,VALID,0,VALID,96.1836,VALID,0,VALID,22.9342,VALID,33,VALID,0.395312,
2008-05-08, 00:42:05,VALID,1009.26,VALID,0,VALID,96.1608,VALID,0,VALID,22.9342,VALID,34,VALID,0.394141,
2008-05-08, 00:43:05,VALID,1009.23,VALID,0,VALID,96.2065,VALID,0,VALID,22.9147,VALID,31,VALID,0.435156,
2008-05-08, 00:44:05,VALID,1009.23,VALID,0,VALID,96.1913,VALID,0,VALID,22.9147,VALID,43,VALID,0.4,
2008-05-08, 00:45:05,VALID,1009.2,VALID,0,VALID,96.2141,VALID,0,VALID,22.9147,VALID,56,VALID,0.413281,
2008-05-08, 00:46:05,VALID,1009.2,VALID,0,VALID,96.2294,VALID,0,VALID,22.9147,VALID,54,VALID,0.590234,
2008-05-08, 00:47:05,VALID,1009.18,VALID,0,VALID,96.237,VALID,0.105969,VALID,22.8545,VALID,47,VALID,0.766406,
2008-05-08, 00:48:05,VALID,1009.18,VALID,0,VALID,96.237,VALID,0,VALID,22.8952,VALID,54,VALID,0.546875,
2008-05-08, 00:49:05,VALID,1009.15,VALID,0,VALID,96.237,VALID,0,VALID,22.8757,VALID,54,VALID,0.498828,
2008-05-08, 00:50:05,VALID,1009.2,VALID,0,VALID,96.2523,VALID,0,VALID,22.8545,VALID,41,VALID,0.458594,
2008-05-08, 00:51:05,VALID,1009.17,VALID,0,VALID,96.2523,VALID,0,VALID,22.8562,VALID,41,VALID,0.217187,
2008-05-08, 00:52:05,VALID,1009.18,VALID,0,VALID,96.2599,VALID,0.105969,VALID,22.835,VALID,41,VALID,0.235547,
2008-05-08, 00:53:05,VALID,1009.15,VALID,0,VALID,96.2675,VALID,0.105969,VALID,22.8155,VALID,41,VALID,0.2625,
2008-05-08, 00:54:05,VALID,1009.13,VALID,0,VALID,96.2675,VALID,0.105969,VALID,22.8562,VALID,41,VALID,0.269531,
2008-05-08, 00:55:05,VALID,1009.11,VALID,0,VALID,96.2828,VALID,0,VALID,22.8368,VALID,41,VALID,0.262891,
2008-05-08, 00:56:05,VALID,1009.09,VALID,0,VALID,96.2904,VALID,0,VALID,22.8155,VALID,41,VALID,0.189453,
2008-05-08, 00:57:05,VALID,1009.07,VALID,0,VALID,96.2828,VALID,0,VALID,22.8155,VALID,45,VALID,0.279297,
2008-05-08, 00:58:05,VALID,1009.05,VALID,0,VALID,96.298,VALID,0,VALID,22.8173,VALID,46,VALID,0.0863281,
2008-05-08, 00:59:05,VALID,1009.02,VALID,0,VALID,96.298,VALID,0.105969,VALID,22.8562,VALID,61,VALID,0.516016,
2008-05-08, 01:00:05,VALID,1009.01,VALID,0,VALID,96.3209,VALID,0.105969,VALID,22.8368,VALID,59,VALID,0.313281,
2008-05-08, 01:01:05,VALID,1009,VALID,0,VALID,96.3209,VALID,0,VALID,22.8368,VALID,59,VALID,0.344922,
2008-05-08, 01:02:05,VALID,1009.01,VALID,0,VALID,96.3133,VALID,0,VALID,22.7978,VALID,59,VALID,0.320313,
2008-05-08, 01:03:05,VALID,1009,VALID,0,VALID,96.3209,VALID,0.105969,VALID,22.8173,VALID,59,VALID,0.218359,
2008-05-08, 01:04:05,VALID,1008.98,VALID,0,VALID,96.3285,VALID,0.105969,VALID,22.8173,VALID,59,VALID,0.263672,
2008-05-08, 01:05:05,VALID,1008.98,VALID,0,VALID,96.3285,VALID,0.105969,VALID,22.8173,VALID,59,VALID,0.258594,
2008-05-08, 01:06:05,VALID,1008.99,VALID,0,VALID,96.3285,VALID,0,VALID,22.7766,VALID,53,VALID,0.389844,
2008-05-08, 01:07:05,VALID,1008.97,VALID,0,VALID,96.3285,VALID,0,VALID,22.7978,VALID,53,VALID,0.362891,
2008-05-08, 01:08:05,VALID,1008.97,VALID,0,VALID,96.3361,VALID,0,VALID,22.7783,VALID,53,VALID,0.590234,
2008-05-08, 01:09:05,VALID,1008.97,VALID,0,VALID,96.3438,VALID,0,VALID,22.7783,VALID,53,VALID,0.469922,
2008-05-08, 01:10:05,VALID,1008.97,VALID,0,VALID,96.3438,VALID,0,VALID,22.7783,VALID,53,VALID,0.373437,
2008-05-08, 01:11:05,VALID,1008.95,VALID,0,VALID,96.3438,VALID,0,VALID,22.7588,VALID,47,VALID,0.582031,
2008-05-08, 01:12:05,VALID,1008.93,VALID,0,VALID,96.3361,VALID,0,VALID,22.7588,VALID,40,VALID,0.389453,
2008-05-08, 01:13:05,VALID,1008.94,VALID,0,VALID,96.3514,VALID,0.105969,VALID,22.7588,VALID,33,VALID,0.628125,
2008-05-08, 01:14:05,VALID,1008.92,VALID,0,VALID,96.359,VALID,0,VALID,22.7394,VALID,38,VALID,0.417188,
2008-05-08, 01:15:05,VALID,1008.94,VALID,0,VALID,96.359,VALID,0.105969,VALID,22.7394,VALID,43,VALID,0.548047,
2008-05-08, 01:16:05,VALID,1008.91,VALID,0,VALID,96.3514,VALID,0,VALID,22.7394,VALID,45,VALID,0.248828,
2008-05-08, 01:17:05,VALID,1008.91,VALID,0,VALID,96.359,VALID,0.105969,VALID,22.7394,VALID,27,VALID,0.144531,
2008-05-08, 01:18:04,VALID,1008.9,VALID,0,VALID,96.3743,VALID,0,VALID,22.7199,VALID,29,VALID,0.269922,
2008-05-08, 01:19:04,VALID,1008.91,VALID,0,VALID,96.3666,VALID,0,VALID,22.7199,VALID,58,VALID,0.346875,
2008-05-08, 01:20:04,VALID,1008.89,VALID,0,VALID,96.3895,VALID,0,VALID,22.7199,VALID,62,VALID,0.398438,
2008-05-08, 01:21:04,VALID,1008.89,VALID,0,VALID,96.4124,VALID,0,VALID,22.7199,VALID,45,VALID,0.332812,
2008-05-08, 01:22:04,VALID,1008.88,VALID,0,VALID,96.4048,VALID,0,VALID,22.7199,VALID,60,VALID,0.759766,
2008-05-08, 01:23:04,VALID,1008.84,VALID,0,VALID,96.3971,VALID,0,VALID,22.7199,VALID,58,VALID,0.384766,
2008-05-08, 01:24:04,VALID,1008.82,VALID,0,VALID,96.42,VALID,0.105969,VALID,22.7394,VALID,59,VALID,0.65625,
2008-05-08, 01:25:04,VALID,1008.83,VALID,0,VALID,96.3971,VALID,0,VALID,22.7199,VALID,70,VALID,0.360547,
2008-05-08, 01:26:04,VALID,1008.82,VALID,0,VALID,96.3971,VALID,0,VALID,22.7394,VALID,68,VALID,0.289844,
2008-05-08, 01:27:04,VALID,1008.8,VALID,0,VALID,96.3819,VALID,0,VALID,22.6987,VALID,56,VALID,0.550391,
2008-05-08, 01:28:04,VALID,1008.8,VALID,0,VALID,96.3895,VALID,0,VALID,22.7199,VALID,72,VALID,0.555859,
2008-05-08, 01:29:04,VALID,1008.78,VALID,0,VALID,96.3971,VALID,0.105969,VALID,22.7199,VALID,73,VALID,0.460938,
2008-05-08, 01:30:04,VALID,1008.75,VALID,0,VALID,96.4048,VALID,0,VALID,22.7199,VALID,80,VALID,0.669141,
2008-05-08, 01:31:04,VALID,1008.75,VALID,0,VALID,96.4124,VALID,0,VALID,22.7004,VALID,48,VALID,0.477734,
2008-05-08, 01:32:04,VALID,1008.73,VALID,0,VALID,96.4048,VALID,0.105969,VALID,22.7199,VALID,75,VALID,0.255078,
2008-05-08, 01:33:04,VALID,1008.75,VALID,0,VALID,96.4048,VALID,0,VALID,22.7394,VALID,75,VALID,0.349609,
2008-05-08, 01:34:04,VALID,1008.73,VALID,0,VALID,96.4124,VALID,0,VALID,22.7004,VALID,75,VALID,0.263281,
2008-05-08, 01:35:04,VALID,1008.76,VALID,0,VALID,96.4048,VALID,0,VALID,22.6809,VALID,20,VALID,0.298047,
2008-05-08, 01:36:04,VALID,1008.75,VALID,0,VALID,96.3971,VALID,0,VALID,22.7004,VALID,16,VALID,0.0640625,
2008-05-08, 01:37:04,VALID,1008.76,VALID,0,VALID,96.4048,VALID,0,VALID,22.6792,VALID,16,VALID,0.129688,
2008-05-08, 01:38:04,VALID,1008.76,VALID,0,VALID,96.4124,VALID,0,VALID,22.6614,VALID,16,VALID,0.149219,
2008-05-08, 01:39:04,VALID,1008.77,VALID,0,VALID,96.4277,VALID,0,VALID,22.6614,VALID,13,VALID,0.222656,
2008-05-08, 01:40:04,VALID,1008.76,VALID,0,VALID,96.4277,VALID,0,VALID,22.6809,VALID,13,VALID,0.117578,
2008-05-08, 01:41:04,VALID,1008.76,VALID,0,VALID,96.4353,VALID,0.105969,VALID,22.6614,VALID,13,VALID,0,
2008-05-08, 01:42:04,VALID,1008.78,VALID,0,VALID,96.4124,VALID,0.105969,VALID,22.6208,VALID,13,VALID,0.103125,
2008-05-08, 01:43:04,VALID,1008.76,VALID,0,VALID,96.4124,VALID,0,VALID,22.6225,VALID,13,VALID,0.135156,
2008-05-08, 01:44:04,VALID,1008.73,VALID,0,VALID,96.42,VALID,0.105969,VALID,22.6225,VALID,13,VALID,0.153125,
2008-05-08, 01:45:04,VALID,1008.75,VALID,0,VALID,96.4429,VALID,0,VALID,22.642,VALID,34,VALID,0.331641,
2008-05-08, 01:46:04,VALID,1008.72,VALID,0,VALID,96.42,VALID,0,VALID,22.6225,VALID,37,VALID,0.263672,
2008-05-08, 01:47:04,VALID,1008.71,VALID,0,VALID,96.4277,VALID,0.105969,VALID,22.603,VALID,37,VALID,0.163281,
2008-05-08, 01:48:04,VALID,1008.74,VALID,0,VALID,96.4429,VALID,0,VALID,22.6225,VALID,37,VALID,0.287891,
2008-05-08, 01:49:04,VALID,1008.71,VALID,0,VALID,96.4429,VALID,0.105969,VALID,22.6225,VALID,37,VALID,0.361328,
2008-05-08, 01:50:04,VALID,1008.71,VALID,0,VALID,96.4582,VALID,0,VALID,22.6225,VALID,37,VALID,0.160156,
2008-05-08, 01:51:04,VALID,1008.73,VALID,0,VALID,96.4429,VALID,0,VALID,22.6225,VALID,37,VALID,0.149609,
2008-05-08, 01:52:04,VALID,1008.71,VALID,0,VALID,96.4582,VALID,0,VALID,22.6242,VALID,45,VALID,0.421484,
2008-05-08, 01:53:04,VALID,1008.72,VALID,0,VALID,96.4887,VALID,0.105969,VALID,22.6208,VALID,54,VALID,0.320703,
2008-05-08, 01:54:04,VALID,1008.72,VALID,0,VALID,96.4734,VALID,0,VALID,22.642,VALID,54,VALID,0.228516,
2008-05-08, 01:55:04,VALID,1008.74,VALID,0,VALID,96.4658,VALID,0,VALID,22.6225,VALID,54,VALID,0.196875,
2008-05-08, 01:56:04,VALID,1008.73,VALID,0,VALID,96.4887,VALID,0,VALID,22.642,VALID,76,VALID,0.372656,
2008-05-08, 01:57:04,VALID,1008.73,VALID,0,VALID,96.4887,VALID,0,VALID,22.6614,VALID,93,VALID,0.491016,
2008-05-08, 01:58:04,VALID,1008.71,VALID,0,VALID,96.5039,VALID,0.105969,VALID,22.6614,VALID,93,VALID,0.405859,
2008-05-08, 01:59:04,VALID,1008.7,VALID,0,VALID,96.4734,VALID,0,VALID,22.6614,VALID,93,VALID,0.493359,
2008-05-08, 02:00:04,VALID,1008.69,VALID,0,VALID,96.4505,VALID,0,VALID,22.6614,VALID,93,VALID,0.539063,
2008-05-08, 02:01:04,VALID,1008.7,VALID,0,VALID,96.4887,VALID,0.105969,VALID,22.6597,VALID,93,VALID,0.667578,
2008-05-08, 02:02:04,VALID,1008.68,VALID,0,VALID,96.4963,VALID,0,VALID,22.6809,VALID,93,VALID,0.557422,
2008-05-08, 02:03:04,VALID,1008.67,VALID,0,VALID,96.5192,VALID,0.105969,VALID,22.7004,VALID,93,VALID,0.625781,
2008-05-08, 02:04:04,VALID,1008.67,VALID,0,VALID,96.481,VALID,0.105969,VALID,22.6809,VALID,85,VALID,0.423828,
2008-05-08, 02:05:04,VALID,1008.65,VALID,0,VALID,96.5039,VALID,0,VALID,22.6809,VALID,78,VALID,0.622266,
2008-05-08, 02:06:04,VALID,1008.65,VALID,0,VALID,96.4887,VALID,0,VALID,22.6597,VALID,81,VALID,0.757031,
2008-05-08, 02:07:04,VALID,1008.64,VALID,0,VALID,96.481,VALID,0.105969,VALID,22.7004,VALID,81,VALID,0.342578,
2008-05-08, 02:08:04,VALID,1008.66,VALID,0,VALID,96.4887,VALID,0.105969,VALID,22.7004,VALID,81,VALID,0.676953,
2008-05-08, 02:09:04,VALID,1008.66,VALID,0,VALID,96.4887,VALID,0,VALID,22.6809,VALID,85,VALID,0.467578,
2008-05-08, 02:10:04,VALID,1008.66,VALID,0,VALID,96.4887,VALID,0.105969,VALID,22.6597,VALID,89,VALID,0.602734,
2008-05-08, 02:11:04,VALID,1008.67,VALID,0,VALID,96.4963,VALID,0.105969,VALID,22.6809,VALID,89,VALID,0.794922,
2008-05-08, 02:12:04,VALID,1008.66,VALID,0,VALID,96.4963,VALID,0,VALID,22.6809,VALID,92,VALID,0.634766,
2008-05-08, 02:13:04,VALID,1008.69,VALID,0,VALID,96.4658,VALID,0.105969,VALID,22.6614,VALID,96,VALID,0.396875,
2008-05-08, 02:14:04,VALID,1008.69,VALID,0,VALID,96.4963,VALID,0,VALID,22.6614,VALID,86,VALID,0.791797,
2008-05-08, 02:15:04,VALID,1008.67,VALID,0,VALID,96.4963,VALID,0,VALID,22.642,VALID,89,VALID,0.569922,
2008-05-08, 02:16:04,VALID,1008.72,VALID,0,VALID,96.4963,VALID,0,VALID,22.6809,VALID,78,VALID,0.456641,
2008-05-08, 02:17:04,VALID,1008.71,VALID,0,VALID,96.4963,VALID,0,VALID,22.6614,VALID,64,VALID,0.674609,
2008-05-08, 02:18:04,VALID,1008.73,VALID,0,VALID,96.481,VALID,0.105969,VALID,22.6614,VALID,63,VALID,0.367188,
2008-05-08, 02:19:04,VALID,1008.72,VALID,0,VALID,96.4887,VALID,0,VALID,22.6614,VALID,63,VALID,0.262109,
2008-05-08, 02:20:04,VALID,1008.69,VALID,0,VALID,96.4658,VALID,0.105969,VALID,22.642,VALID,64,VALID,0.0855469,
2008-05-08, 02:21:04,VALID,1008.69,VALID,0,VALID,96.481,VALID,0,VALID,22.6208,VALID,64,VALID,0.307422,
2008-05-08, 02:22:04,VALID,1008.68,VALID,0,VALID,96.4887,VALID,0.105969,VALID,22.6013,VALID,64,VALID,0.283594,
2008-05-08, 02:23:04,VALID,1008.67,VALID,0,VALID,96.4887,VALID,0,VALID,22.6225,VALID,64,VALID,0.244922,
2008-05-08, 02:24:04,VALID,1008.68,VALID,0,VALID,96.481,VALID,0.105969,VALID,22.5818,VALID,64,VALID,0.254687,
2008-05-08, 02:25:04,VALID,1008.71,VALID,0,VALID,96.481,VALID,0,VALID,22.603,VALID,63,VALID,0.451172,
2008-05-08, 02:26:04,VALID,1008.69,VALID,0,VALID,96.4963,VALID,0,VALID,22.603,VALID,63,VALID,0.204297,
2008-05-08, 02:27:04,VALID,1008.68,VALID,0,VALID,96.5039,VALID,0,VALID,22.603,VALID,68,VALID,0.479297,
2008-05-08, 02:28:04,VALID,1008.69,VALID,0,VALID,96.4963,VALID,0.105969,VALID,22.5835,VALID,69,VALID,0.310547,
2008-05-08, 02:29:04,VALID,1008.68,VALID,0,VALID,96.5039,VALID,0.105969,VALID,22.5835,VALID,69,VALID,0.346875,
2008-05-08, 02:30:04,VALID,1008.71,VALID,0,VALID,96.5115,VALID,0.105969,VALID,22.564,VALID,69,VALID,0.143359,
2008-05-08, 02:31:04,VALID,1008.71,VALID,0,VALID,96.5115,VALID,0.105969,VALID,22.5835,VALID,69,VALID,0.0179687,
2008-05-08, 02:32:04,VALID,1008.73,VALID,0,VALID,96.4887,VALID,0.105969,VALID,22.564,VALID,94,VALID,0.214844,
2008-05-08, 02:33:04,VALID,1008.72,VALID,0,VALID,96.5192,VALID,0.105969,VALID,22.564,VALID,94,VALID,0.00429688,
2008-05-08, 02:34:04,VALID,1008.7,VALID,0,VALID,96.5039,VALID,0,VALID,22.564,VALID,94,VALID,0.236719,
2008-05-08, 02:35:04,VALID,1008.73,VALID,0,VALID,96.5192,VALID,0.105969,VALID,22.5446,VALID,88,VALID,0.223828,
2008-05-08, 02:36:04,VALID,1008.74,VALID,0,VALID,96.5115,VALID,0.105969,VALID,22.5446,VALID,88,VALID,0.153906,
2008-05-08, 02:37:04,VALID,1008.75,VALID,0,VALID,96.5192,VALID,0.105969,VALID,22.5446,VALID,88,VALID,0.290625,
2008-05-08, 02:38:04,VALID,1008.75,VALID,0,VALID,96.5039,VALID,0.105969,VALID,22.5251,VALID,88,VALID,0.224219,
2008-05-08, 02:39:04,VALID,1008.75,VALID,0,VALID,96.5115,VALID,0,VALID,22.5073,VALID,88,VALID,0.292578,
2008-05-08, 02:40:04,VALID,1008.76,VALID,0,VALID,96.5115,VALID,0,VALID,22.4861,VALID,47,VALID,0.298047,
2008-05-08, 02:41:04,VALID,1008.77,VALID,0,VALID,96.5268,VALID,0,VALID,22.5073,VALID,43,VALID,0.339844,
2008-05-08, 02:42:04,VALID,1008.79,VALID,0,VALID,96.5268,VALID,0,VALID,22.4667,VALID,33,VALID,0.364062,
2008-05-08, 02:43:04,VALID,1008.76,VALID,0,VALID,96.5115,VALID,0,VALID,22.4878,VALID,33,VALID,0.321875,
2008-05-08, 02:44:04,VALID,1008.77,VALID,0,VALID,96.4963,VALID,0,VALID,22.4489,VALID,33,VALID,0.325391,
2008-05-08, 02:45:04,VALID,1008.74,VALID,0,VALID,96.4963,VALID,0,VALID,22.4294,VALID,33,VALID,0.354297,
2008-05-08, 02:46:04,VALID,1008.75,VALID,0,VALID,96.5039,VALID,0,VALID,22.4489,VALID,32,VALID,0.321094,
2008-05-08, 02:47:04,VALID,1008.74,VALID,0,VALID,96.4887,VALID,0,VALID,22.3693,VALID,32,VALID,0.335156,
2008-05-08, 02:48:04,VALID,1008.7,VALID,0,VALID,96.5192,VALID,0,VALID,22.371,VALID,32,VALID,0.127344,
2008-05-08, 02:49:04,VALID,1008.72,VALID,0,VALID,96.5192,VALID,0,VALID,22.3515,VALID,32,VALID,0,
2008-05-08, 02:50:04,VALID,1008.75,VALID,0,VALID,96.5268,VALID,0,VALID,22.3303,VALID,32,VALID,0,
2008-05-08, 02:51:04,VALID,1008.73,VALID,0,VALID,96.5268,VALID,0,VALID,22.332,VALID,32,VALID,0,
2008-05-08, 02:52:04,VALID,1008.73,VALID,0,VALID,96.5268,VALID,0,VALID,22.3108,VALID,32,VALID,0,
2008-05-08, 02:53:04,VALID,1008.72,VALID,0,VALID,96.542,VALID,0,VALID,22.2914,VALID,32,VALID,0,
2008-05-08, 02:54:04,VALID,1008.74,VALID,0,VALID,96.542,VALID,0,VALID,22.293,VALID,32,VALID,0.145703,
2008-05-08, 02:55:04,VALID,1008.73,VALID,0,VALID,96.542,VALID,0,VALID,22.293,VALID,32,VALID,0.180469,
2008-05-08, 02:56:04,VALID,1008.76,VALID,0,VALID,96.5573,VALID,0,VALID,22.3125,VALID,32,VALID,0.141016,
2008-05-08, 02:57:04,VALID,1008.74,VALID,0,VALID,96.5497,VALID,0.105969,VALID,22.2719,VALID,32,VALID,0,
2008-05-08, 02:58:04,VALID,1008.73,VALID,0,VALID,96.5573,VALID,0.105969,VALID,22.2719,VALID,32,VALID,0,
2008-05-08, 02:59:04,VALID,1008.7,VALID,0,VALID,96.5725,VALID,0.105969,VALID,22.2507,VALID,32,VALID,0,
2008-05-08, 03:00:04,VALID,1008.74,VALID,0,VALID,96.5802,VALID,0.105969,VALID,22.3303,VALID,32,VALID,0.169141,
2008-05-08, 03:01:04,VALID,1008.76,VALID,0,VALID,96.5878,VALID,0,VALID,22.3091,VALID,33,VALID,0.179297,
2008-05-08, 03:02:04,VALID,1008.76,VALID,0,VALID,96.603,VALID,0.105969,VALID,22.3286,VALID,58,VALID,0.272656,
2008-05-08, 03:03:04,VALID,1008.73,VALID,0,VALID,96.603,VALID,0.105969,VALID,22.3498,VALID,59,VALID,0.187109,
2008-05-08, 03:04:04,VALID,1008.73,VALID,0,VALID,96.6259,VALID,0.105969,VALID,22.3693,VALID,58,VALID,0.242188,
2008-05-08, 03:05:04,VALID,1008.73,VALID,0,VALID,96.603,VALID,0,VALID,22.3693,VALID,58,VALID,0.105078,
2008-05-08, 03:06:04,VALID,1008.76,VALID,0,VALID,96.5878,VALID,0.105969,VALID,22.3286,VALID,59,VALID,0.0128906,
2008-05-08, 03:07:04,VALID,1008.77,VALID,0,VALID,96.5954,VALID,0.105969,VALID,22.3286,VALID,58,VALID,0,
2008-05-08, 03:08:04,VALID,1008.77,VALID,0,VALID,96.5954,VALID,0,VALID,22.3091,VALID,58,VALID,0.248828,
2008-05-08, 03:09:04,VALID,1008.77,VALID,0,VALID,96.6183,VALID,0.105969,VALID,22.3693,VALID,59,VALID,0.360547,
2008-05-08, 03:10:04,VALID,1008.74,VALID,0,VALID,96.6335,VALID,0.105969,VALID,22.3676,VALID,65,VALID,0.557031,
2008-05-08, 03:11:04,VALID,1008.76,VALID,0,VALID,96.6412,VALID,0.105969,VALID,22.387,VALID,72,VALID,0.463672,
2008-05-08, 03:12:04,VALID,1008.76,VALID,0,VALID,96.6335,VALID,0.105969,VALID,22.387,VALID,80,VALID,0.537891,
2008-05-08, 03:13:04,VALID,1008.74,VALID,0,VALID,96.6335,VALID,0.105969,VALID,22.3887,VALID,79,VALID,0.412891,
2008-05-08, 03:14:04,VALID,1008.73,VALID,0,VALID,96.6488,VALID,0,VALID,22.4065,VALID,88,VALID,0.566016,
2008-05-08, 03:15:04,VALID,1008.75,VALID,0,VALID,96.6335,VALID,0.105969,VALID,22.3676,VALID,85,VALID,0.661328,
2008-05-08, 03:16:04,VALID,1008.74,VALID,0,VALID,96.6412,VALID,0,VALID,22.4277,VALID,80,VALID,0.325391,
2008-05-08, 03:17:04,VALID,1008.73,VALID,0,VALID,96.6488,VALID,0.105969,VALID,22.4065,VALID,83,VALID,0.813672,
2008-05-08, 03:18:04,VALID,1008.76,VALID,0,VALID,96.6259,VALID,0.105969,VALID,22.4472,VALID,82,VALID,0.395703,
2008-05-08, 03:19:04,VALID,1008.76,VALID,0,VALID,96.6335,VALID,0.105969,VALID,22.426,VALID,82,VALID,0.448828,
2008-05-08, 03:20:04,VALID,1008.74,VALID,0,VALID,96.6335,VALID,0.105969,VALID,22.4065,VALID,82,VALID,0.490234,
2008-05-08, 03:21:04,VALID,1008.74,VALID,0,VALID,96.6412,VALID,0.105969,VALID,22.4472,VALID,94,VALID,0.432422,
2008-05-08, 03:22:04,VALID,1008.78,VALID,0,VALID,96.6412,VALID,0.105969,VALID,22.4472,VALID,93,VALID,0.474219,
2008-05-08, 03:23:04,VALID,1008.75,VALID,0,VALID,96.664,VALID,0.105969,VALID,22.4667,VALID,86,VALID,0.392969,
2008-05-08, 03:24:04,VALID,1008.74,VALID,0,VALID,96.6412,VALID,0.105969,VALID,22.4472,VALID,75,VALID,0.299609,
2008-05-08, 03:25:04,VALID,1008.75,VALID,0,VALID,96.6412,VALID,0.105969,VALID,22.4472,VALID,75,VALID,0.222266,
2008-05-08, 03:26:04,VALID,1008.74,VALID,0,VALID,96.6335,VALID,0,VALID,22.4472,VALID,75,VALID,0.0742188,
2008-05-08, 03:27:04,VALID,1008.71,VALID,0,VALID,96.6488,VALID,0.105969,VALID,22.4667,VALID,75,VALID,0.293359,
2008-05-08, 03:28:04,VALID,1008.72,VALID,0,VALID,96.6412,VALID,0.105969,VALID,22.4667,VALID,68,VALID,0.424609,
2008-05-08, 03:29:04,VALID,1008.72,VALID,0,VALID,96.6412,VALID,0.105969,VALID,22.4455,VALID,68,VALID,0.457031,
2008-05-08, 03:30:04,VALID,1008.74,VALID,0,VALID,96.6259,VALID,0.105969,VALID,22.4455,VALID,68,VALID,0.354297,
2008-05-08, 03:31:04,VALID,1008.71,VALID,0,VALID,96.6412,VALID,0.105969,VALID,22.4472,VALID,68,VALID,0,
2008-05-08, 03:32:04,VALID,1008.72,VALID,0,VALID,96.6488,VALID,0.105969,VALID,22.426,VALID,68,VALID,0,
2008-05-08, 03:33:04,VALID,1008.69,VALID,0,VALID,96.6564,VALID,0.105969,VALID,22.4667,VALID,68,VALID,0,
2008-05-08, 03:34:04,VALID,1008.7,VALID,0,VALID,96.6488,VALID,0.105969,VALID,22.4472,VALID,68,VALID,0,
2008-05-08, 03:35:04,VALID,1008.69,VALID,0,VALID,96.6488,VALID,0.105969,VALID,22.4667,VALID,68,VALID,0,
2008-05-08, 03:36:04,VALID,1008.67,VALID,0,VALID,96.6488,VALID,0.105969,VALID,22.4861,VALID,68,VALID,0,
2008-05-08, 03:37:04,VALID,1008.66,VALID,0,VALID,96.6488,VALID,0.105969,VALID,22.4667,VALID,68,VALID,0.276172,
2008-05-08, 03:38:04,VALID,1008.65,VALID,0,VALID,96.664,VALID,0.105969,VALID,22.4667,VALID,68,VALID,0.283984,
2008-05-08, 03:39:04,VALID,1008.65,VALID,0,VALID,96.6564,VALID,0.105969,VALID,22.4455,VALID,68,VALID,0.286719,
2008-05-08, 03:40:04,VALID,1008.63,VALID,0,VALID,96.6412,VALID,0,VALID,22.4667,VALID,68,VALID,0,